Le nostre stazioni meteo in Italia

Pubblicità
Il mio iltempo24.it
Kinlochewe, Gran Bretagna (99092): Temperatura & dewpoint: 15.01.2018 08:00:00 - 21.01.2018 08:00:00 (GMT)Kinlochewe, Gran Bretagna (99092): Temperatura -20cm: 15.01.2018 08:00:00 - 21.01.2018 08:00:00 (GMT)Kinlochewe, Gran Bretagna (99092): precipitazioni: 15.01.2018 08:00:00 - 21.01.2018 08:00:00 (GMT)
Data & Tempo tt [°C] td [°C] tt -20cm [°C] rr [mm]
21.01.2018 08:00:00 -1,9 -3,6 - -
21.01.2018 07:00:00 -4,2 -4,9 - 0,0
21.01.2018 06:00:00 -3,0 -4,2 - 0,0
21.01.2018 05:00:00 -2,3 -3,8 - 0,0
21.01.2018 04:00:00 -2,7 -3,9 - 0,0
21.01.2018 03:00:00 -3,2 -4,4 - 0,0
21.01.2018 02:00:00 -3,5 -4,7 - 0,0
21.01.2018 01:00:00 -2,9 -3,9 - 0,0
21.01.2018 00:00:00 -2,9 -3,8 - 0,0
20.01.2018 23:00:00 -3,3 -4,0 - 0,0
20.01.2018 22:00:00 -4,0 -4,9 - 0,0
20.01.2018 21:00:00 -3,7 -4,5 - 0,0
20.01.2018 20:00:00 -3,7 -4,5 - 0,0
20.01.2018 19:00:00 -2,8 -3,2 - 0,0
20.01.2018 18:00:00 -3,3 -4,0 - 0,0
20.01.2018 17:00:00 -2,5 -3,1 - 0,0
20.01.2018 16:00:00 -1,5 -2,0 - 0,0
20.01.2018 15:00:00 -1,5 -2,8 - 0,0
20.01.2018 14:00:00 -0,1 -1,4 - 0,0
20.01.2018 13:00:00 1,5 -0,8 - 0,0
20.01.2018 12:00:00 -0,9 -1,7 - 0,0
20.01.2018 11:00:00 -0,7 -1,0 - 0,0
20.01.2018 10:00:00 -0,8 -1,0 - 0,0
20.01.2018 09:00:00 -1,7 -2,0 3,0 0,0
20.01.2018 08:00:00 -1,7 -2,0 - 0,0
20.01.2018 07:00:00 -1,4 -1,6 - 0,0
20.01.2018 06:00:00 -0,9 -1,0 - 0,0
20.01.2018 05:00:00 -1,3 -1,4 - 0,0
20.01.2018 04:00:00 -1,7 -1,9 - 0,0
20.01.2018 03:00:00 -0,9 -1,0 - 0,0
20.01.2018 02:00:00 -0,1 -0,2 - 0,0
20.01.2018 01:00:00 0,1 -0,1 - 0,0
20.01.2018 00:00:00 0,1 -0,1 - 0,0
19.01.2018 23:00:00 0,2 -0,1 - 0,0
19.01.2018 22:00:00 0,5 0,2 - 0,4
19.01.2018 21:00:00 0,5 0,1 - 0,0
19.01.2018 20:00:00 1,5 0,1 - 0,0
19.01.2018 19:00:00 0,7 -0,1 - 0,8
19.01.2018 18:00:00 1,3 -0,7 - 0,0
19.01.2018 17:00:00 1,7 -1,4 - 0,0
19.01.2018 16:00:00 1,2 -0,5 - 0,0
19.01.2018 15:00:00 1,6 -0,4 - 0,0
19.01.2018 14:00:00 1,4 -0,2 - 0,0
19.01.2018 13:00:00 1,6 -1,1 - 0,0
19.01.2018 12:00:00 1,0 -1,2 - 0,0
19.01.2018 11:00:00 0,5 -1,2 - 0,0
19.01.2018 10:00:00 1,2 -0,6 - 0,0
19.01.2018 09:00:00 1,4 -0,2 3,0 0,0
19.01.2018 08:00:00 -0,1 -0,4 - 0,0
19.01.2018 07:00:00 -0,7 -1,0 - 0,0
19.01.2018 06:00:00 0,2 -0,4 - 0,0
19.01.2018 05:00:00 -0,1 -0,5 - 0,0
19.01.2018 04:00:00 -0,6 -1,3 - 0,0
19.01.2018 03:00:00 0,2 -0,6 - 0,0
19.01.2018 02:00:00 0,6 0,2 - 0,0
19.01.2018 01:00:00 0,3 0,0 - 0,0
19.01.2018 00:00:00 0,2 -0,2 - 0,0
18.01.2018 23:00:00 0,2 -0,2 - 0,0
18.01.2018 22:00:00 0,2 -0,1 - 0,0
18.01.2018 21:00:00 0,3 0,0 - 0,0
18.01.2018 20:00:00 0,2 -0,1 - 0,0
18.01.2018 19:00:00 0,0 -0,7 - 0,4
18.01.2018 18:00:00 2,6 -0,3 - 0,0
18.01.2018 17:00:00 1,6 -0,2 - 0,4
18.01.2018 16:00:00 1,6 0,6 - 0,4
18.01.2018 15:00:00 3,2 0,3 - 0,0
18.01.2018 14:00:00 2,7 0,8 - 0,0
18.01.2018 13:00:00 3,6 0,6 - 0,8
18.01.2018 12:00:00 1,5 1,0 - 0,0
18.01.2018 11:00:00 1,2 0,7 - 0,0
18.01.2018 10:00:00 1,0 0,7 - 0,0
18.01.2018 09:00:00 0,5 -0,2 3,0 0,0
18.01.2018 08:00:00 0,2 -0,5 - 0,0
18.01.2018 07:00:00 0,6 -0,5 - 0,0
18.01.2018 06:00:00 2,2 0,5 - 0,0
18.01.2018 05:00:00 0,4 0,1 - 0,0
18.01.2018 04:00:00 0,0 -0,5 - 0,0
18.01.2018 03:00:00 -0,7 -1,6 - 0,0
18.01.2018 02:00:00 -0,8 -1,7 - 0,0
18.01.2018 01:00:00 -1,1 -2,0 - 0,0
18.01.2018 00:00:00 -0,5 -1,0 - 0,0
17.01.2018 23:00:00 -0,7 -1,1 - 0,0
17.01.2018 22:00:00 0,3 -0,1 - 0,0
17.01.2018 21:00:00 0,3 -0,3 - 0,2
17.01.2018 20:00:00 1,5 0,7 - 0,0
17.01.2018 19:00:00 0,6 0,0 - 0,6
17.01.2018 18:00:00 0,9 0,3 - 0,8
17.01.2018 17:00:00 1,9 0,7 - 0,6
17.01.2018 16:00:00 1,8 0,8 - 0,2
17.01.2018 15:00:00 2,1 1,3 - 1,0
17.01.2018 14:00:00 2,4 1,1 - 0,6
17.01.2018 13:00:00 2,4 0,4 - 1,0
17.01.2018 12:00:00 3,0 0,6 - 0,8
17.01.2018 11:00:00 2,7 -0,6 - 1,6
17.01.2018 10:00:00 2,7 0,2 - 1,8
17.01.2018 09:00:00 4,3 -0,9 3,2 2,0
17.01.2018 08:00:00 3,7 -2,1 - 1,2
17.01.2018 07:00:00 2,3 -0,6 - 1,6
17.01.2018 06:00:00 3,2 -2,1 - 2,4
17.01.2018 05:00:00 3,0 -2,4 - 0,8
17.01.2018 04:00:00 2,2 -0,6 - 0,2
17.01.2018 03:00:00 1,7 0,0 - 0,0
17.01.2018 02:00:00 1,8 -0,8 - 0,0
17.01.2018 01:00:00 1,3 -1,7 - 0,0
17.01.2018 00:00:00 1,0 -1,9 - 0,0
16.01.2018 23:00:00 0,6 -1,7 - 0,0
16.01.2018 22:00:00 -1,2 -2,1 - 0,0
16.01.2018 21:00:00 -1,0 -1,5 - 0,0
16.01.2018 20:00:00 -1,9 -2,9 - 0,0
16.01.2018 19:00:00 0,1 -1,5 - 0,0
16.01.2018 18:00:00 -0,5 -1,0 - 0,0
16.01.2018 17:00:00 -0,3 -1,7 - 0,0
16.01.2018 16:00:00 -0,1 -1,2 - 0,2
16.01.2018 15:00:00 1,3 -4,6 - 0,4
16.01.2018 14:00:00 1,6 -3,5 - 0,8
16.01.2018 13:00:00 2,1 -3,4 - 1,2
16.01.2018 12:00:00 1,8 -2,1 - 0,2
16.01.2018 11:00:00 1,9 -1,8 - 0,0
16.01.2018 10:00:00 0,3 -0,3 - 0,2
16.01.2018 09:00:00 1,1 -0,8 3,5 0,0
16.01.2018 08:00:00 1,5 -2,1 - 0,0
16.01.2018 07:00:00 2,2 -2,2 - 0,0
16.01.2018 06:00:00 1,8 -1,5 - 0,2
16.01.2018 05:00:00 2,7 -2,4 - 0,2
16.01.2018 04:00:00 3,1 -3,0 - 0,0
16.01.2018 03:00:00 3,2 -2,6 - 0,4
16.01.2018 02:00:00 3,2 -2,3 - 0,6
16.01.2018 01:00:00 2,3 -1,7 - 0,2
16.01.2018 00:00:00 2,3 -1,6 - 0,2
15.01.2018 23:00:00 2,4 -1,9 - 0,0
15.01.2018 22:00:00 3,2 -1,6 - 0,0
15.01.2018 21:00:00 3,0 -1,5 - 0,2
15.01.2018 20:00:00 2,6 -0,2 - 0,0
15.01.2018 19:00:00 3,0 -0,5 - 0,0
15.01.2018 18:00:00 2,6 0,3 - 0,4
15.01.2018 17:00:00 2,7 -0,3 - 0,0
15.01.2018 16:00:00 3,5 0,3 - 0,0
15.01.2018 15:00:00 3,0 1,1 - 1,0
15.01.2018 14:00:00 3,3 1,9 - 0,8
15.01.2018 13:00:00 4,5 1,2 - 0,2
15.01.2018 12:00:00 3,2 1,9 - 1,4
15.01.2018 11:00:00 4,7 2,1 - 0,0
15.01.2018 10:00:00 3,9 1,9 - 0,2
15.01.2018 09:00:00 4,7 1,2 3,7 0,0
15.01.2018 08:00:00 5,4 0,9 - 0,2

tt = Temperatura
td = dewpoint
tt -20cm = Temperatura -20cm
rr = precipitazioni

Stazioni seguenti

WeatherPro
AMSI
MeteoEarth